EUTELSAT 65 WEST A

Last updated on Sun Jun 21 2026 00:03:06 GMT+0000 (Coordinated Universal Time)

1 41382U 16014A 26171.37907042 -.00000281 00000+0 00000+0 0 9999 2 41382 0.0503 338.6021 0002451 106.2797 254.9608 1.00273449 37559
UTC large
Height (km)
Speed (km/s)
/
Latitude / Longitude
Inclination (degrees)
Orbital Period (minutes)
Azimuth
Elevation
Range (km)
Doppler Factor

Next 0 passes for location: London (51.5072 / 0.1276)

No passes found over London.
EUTELSAT 65 WEST A